• Em Portugal
  • Lista de países
  • Para 7 dias
  • Temperatura da água
  • Mapas de satélite
  • Mapa do tempo
  • Widgets de tempo
  • user-avatar
    Iniciar Sessão

    Previsão horária em Pleven

    Hoje, 14 Novembro, Quarta-feira

    Tempo Temperatura Precipitação Vento Pressão Humidade
    00:00 +9°C° 0 mm 1 m/s 755 mmHg 86%
    01:00 +8°C° 0 mm 1 m/s 755 mmHg 87%
    02:00 +8°C° 0 mm 1 m/s 754 mmHg 88%
    03:00 +8°C° 0 mm 1 m/s 754 mmHg 89%
    04:00 +8°C° 0 mm 1 m/s 754 mmHg 89%
    05:00 +7°C° 0 mm 1 m/s 753 mmHg 89%
    06:00 +8°C° 0 mm 1 m/s 753 mmHg 88%
    07:00 +8°C° 0 mm 1 m/s 753 mmHg 87%
    08:00 +8°C° 0 mm 1 m/s 753 mmHg 86%
    09:00 +10°C° 0 mm 1 m/s 753 mmHg 78%
    10:00 +11°C° 0 mm 1 m/s 752 mmHg 70%
    11:00 +13°C° 0 mm 2 m/s 752 mmHg 62%
    12:00 +14°C° 0 mm 2 m/s 752 mmHg 61%
    13:00 +14°C° 0 mm 2 m/s 751 mmHg 59%
    14:00 +14°C° 0 mm 3 m/s 751 mmHg 58%
    15:00 +14°C° 0 mm 2 m/s 751 mmHg 61%
    16:00 +14°C° 0 mm 2 m/s 751 mmHg 64%
    17:00 +13°C° 0 mm 1 m/s 750 mmHg 68%
    18:00 +13°C° 0 mm 1 m/s 751 mmHg 69%
    19:00 +12°C° 0 mm 2 m/s 751 mmHg 71%
    20:00 +12°C° 0 mm 2 m/s 751 mmHg 72%
    21:00 +12°C° 0 mm 2 m/s 751 mmHg 73%
    22:00 +10°C° 0 mm 2 m/s 751 mmHg 74%
    23:00 +10°C° 0 mm 2 m/s 751 mmHg 74%

    Amanhã, 15 Novembro, Quinta-feira

    Tempo Temperatura Precipitação Vento Pressão Humidade
    00:00 +10°C° 0.1 mm 2 m/s 751 mmHg 75%
    01:00 +10°C° 0.1 mm 2 m/s 751 mmHg 76%
    02:00 +10°C° 0.1 mm 2 m/s 750 mmHg 77%
    03:00 +9°C° 1.4 mm 3 m/s 750 mmHg 80%
    04:00 +9°C° 1.4 mm 3 m/s 750 mmHg 82%
    05:00 +7°C° 1.4 mm 4 m/s 750 mmHg 85%
    06:00 +8°C° 1.4 mm 3 m/s 751 mmHg 85%
    07:00 +8°C° 1.4 mm 3 m/s 751 mmHg 85%
    08:00 +7°C° 1.4 mm 2 m/s 751 mmHg 85%
    09:00 +8°C° 0.1 mm 2 m/s 752 mmHg 81%
    10:00 +9°C° 0.1 mm 1 m/s 752 mmHg 76%
    11:00 +10°C° 0.1 mm 1 m/s 752 mmHg 72%
    12:00 +10°C° 0 mm 1 m/s 752 mmHg 69%
    13:00 +11°C° 0 mm 1 m/s 751 mmHg 65%
    14:00 +11°C° 0 mm 1 m/s 751 mmHg 62%
    15:00 +11°C° 0 mm 1 m/s 751 mmHg 64%
    16:00 +10°C° 0 mm 1 m/s 751 mmHg 66%
    17:00 +10°C° 0 mm 1 m/s 751 mmHg 68%
    18:00 +9°C° 0.1 mm 1 m/s 751 mmHg 70%
    19:00 +9°C° 0.1 mm 1 m/s 752 mmHg 73%
    20:00 +8°C° 0.1 mm 1 m/s 752 mmHg 75%
    21:00 +8°C° 0.2 mm 1 m/s 752 mmHg 75%
    22:00 +8°C° 0.2 mm 1 m/s 753 mmHg 75%
    23:00 +8°C° 0.2 mm 1 m/s 753 mmHg 76%

    Depois de amanhã, 16 Novembro, Sexta-feira

    Tempo Temperatura Precipitação Vento Pressão Humidade
    00:00 +8°C° 0.6 mm 1 m/s 753 mmHg 78%
    01:00 +7°C° 0.6 mm 1 m/s 753 mmHg 80%
    02:00 +7°C° 0.6 mm 1 m/s 753 mmHg 82%
    03:00 +7°C° 0.3 mm 1 m/s 753 mmHg 83%
    04:00 +7°C° 0.3 mm 1 m/s 753 mmHg 85%
    05:00 +7°C° 0.3 mm 1 m/s 754 mmHg 87%
    06:00 +6°C° 0 mm 2 m/s 754 mmHg 87%
    07:00 +5°C° 0 mm 2 m/s 755 mmHg 86%
    08:00 +5°C° 0 mm 2 m/s 755 mmHg 86%
    09:00 +5°C° 0 mm 3 m/s 755 mmHg 80%
    10:00 +7°C° 0 mm 3 m/s 755 mmHg 73%
    11:00 +7°C° 0 mm 3 m/s 756 mmHg 66%
    12:00 +7°C° 0 mm 3 m/s 755 mmHg 65%
    13:00 +7°C° 0 mm 3 m/s 755 mmHg 64%
    14:00 +7°C° 0 mm 3 m/s 755 mmHg 62%
    15:00 +7°C° 0 mm 3 m/s 755 mmHg 64%
    16:00 +6°C° 0 mm 2 m/s 755 mmHg 66%
    17:00 +7°C° 0 mm 1 m/s 755 mmHg 67%
    18:00 +6°C° 0 mm 1 m/s 756 mmHg 70%
    19:00 +6°C° 0 mm 1 m/s 756 mmHg 72%
    20:00 +5°C° 0 mm 1 m/s 756 mmHg 75%
    21:00 +5°C° 0 mm 1 m/s 756 mmHg 74%
    22:00 +4°C° 0 mm 1 m/s 757 mmHg 73%
    23:00 +4°C° 0 mm 1 m/s 757 mmHg 72%

    17 Novembro, Sábado

    Tempo Temperatura Precipitação Vento Pressão Humidade
    00:00 +4°C° 0 mm 1 m/s 757 mmHg 71%
    01:00 +3°C° 0 mm 1 m/s 757 mmHg 70%
    02:00 +3°C° 0 mm 1 m/s 757 mmHg 69%
    03:00 +3°C° 0 mm 1 m/s 757 mmHg 69%
    04:00 +2°C° 0 mm 1 m/s 757 mmHg 69%
    05:00 +2°C° 0 mm 1 m/s 757 mmHg 69%
    06:00 +2°C° 0 mm 1 m/s 757 mmHg 67%
    07:00 +2°C° 0 mm 1 m/s 757 mmHg 66%
    08:00 +2°C° 0 mm 1 m/s 757 mmHg 65%
    09:00 +2°C° 0 mm 2 m/s 757 mmHg 60%
    10:00 +3°C° 0 mm 3 m/s 757 mmHg 55%
    11:00 +4°C° 0 mm 3 m/s 757 mmHg 50%
    12:00 +4°C° 0 mm 3 m/s 757 mmHg 49%
    13:00 +5°C° 0 mm 3 m/s 756 mmHg 48%
    14:00 +5°C° 0 mm 3 m/s 756 mmHg 47%
    15:00 +4°C° 0 mm 3 m/s 756 mmHg 51%
    16:00 +3°C° 0 mm 3 m/s 756 mmHg 55%
    17:00 +4°C° 0 mm 2 m/s 756 mmHg 59%
    18:00 +3°C° 0 mm 2 m/s 756 mmHg 61%
    19:00 +2°C° 0 mm 2 m/s 756 mmHg 64%
    20:00 +2°C° 0 mm 2 m/s 757 mmHg 67%
    21:00 +2°C° 0 mm 2 m/s 757 mmHg 69%
    22:00 +1°C° 0 mm 2 m/s 757 mmHg 72%
    23:00 +1°C° 0 mm 2 m/s 757 mmHg 74%

    18 Novembro, Domingo

    Tempo Temperatura Precipitação Vento Pressão Humidade
    00:00 +1°C° 0 mm 2 m/s 756 mmHg 75%
    01:00 +1°C° 0 mm 1 m/s 756 mmHg 77%
    02:00 +1°C° 0 mm 1 m/s 756 mmHg 78%
    03:00 +1°C° 0 mm 1 m/s 756 mmHg 79%
    04:00 +1°C° 0 mm 1 m/s 755 mmHg 79%
    05:00 0°C° 0 mm 1 m/s 755 mmHg 80%
    06:00 +1°C° 0 mm 1 m/s 755 mmHg 79%
    07:00 +1°C° 0 mm 1 m/s 754 mmHg 78%
    08:00 +1°C° 0 mm 1 m/s 754 mmHg 77%
    09:00 +2°C° 0 mm 1 m/s 754 mmHg 70%
    10:00 +3°C° 0 mm 2 m/s 753 mmHg 63%
    11:00 +4°C° 0 mm 2 m/s 753 mmHg 56%
    12:00 +5°C° 0 mm 2 m/s 752 mmHg 54%
    13:00 +5°C° 0 mm 2 m/s 751 mmHg 53%
    14:00 +6°C° 0 mm 2 m/s 750 mmHg 51%
    15:00 +5°C° 0 mm 2 m/s 750 mmHg 55%
    16:00 +5°C° 0 mm 1 m/s 749 mmHg 59%
    17:00 +4°C° 0 mm 1 m/s 748 mmHg 63%
    18:00 +4°C° 0 mm 1 m/s 748 mmHg 64%
    19:00 +4°C° 0 mm 1 m/s 747 mmHg 65%
    20:00 +4°C° 0 mm 1 m/s 747 mmHg 66%
    21:00 +3°C° 0.1 mm 0 m/s 747 mmHg 66%
    22:00 +3°C° 0.1 mm 0 m/s 746 mmHg 66%
    23:00 +3°C° 0.1 mm 0 m/s 746 mmHg 66%

    19 Novembro, Segunda-feira

    Tempo Temperatura Precipitação Vento Pressão Humidade
    00:00 +3°C° 0.2 mm 0 m/s 745 mmHg 68%
    01:00 +3°C° 0.2 mm 0 m/s 745 mmHg 70%
    02:00 +3°C° 0.2 mm 0 m/s 744 mmHg 72%
    03:00 +2°C° 0.4 mm 0 m/s 744 mmHg 76%
    04:00 +3°C° 0.4 mm 1 m/s 743 mmHg 79%
    05:00 +3°C° 0.4 mm 1 m/s 743 mmHg 83%
    06:00 +3°C° 0.7 mm 1 m/s 743 mmHg 86%
    07:00 +3°C° 0.7 mm 1 m/s 743 mmHg 88%
    08:00 +2°C° 0.7 mm 1 m/s 743 mmHg 91%
    09:00 +3°C° 0.5 mm 1 m/s 743 mmHg 91%
    10:00 +2°C° 0.5 mm 2 m/s 743 mmHg 92%
    11:00 +2°C° 0.5 mm 2 m/s 743 mmHg 92%
    12:00 +2°C° 0.6 mm 2 m/s 743 mmHg 92%
    13:00 +2°C° 0.6 mm 2 m/s 742 mmHg 93%
    14:00 +2°C° 0.6 mm 2 m/s 742 mmHg 93%
    15:00 +1°C° 0.8 mm 2 m/s 742 mmHg 94%
    16:00 +1°C° 0.8 mm 2 m/s 742 mmHg 95%
    17:00 +1°C° 0.8 mm 2 m/s 743 mmHg 96%
    18:00 +2°C° 0.7 mm 1 m/s 743 mmHg 96%
    19:00 +2°C° 0.7 mm 1 m/s 743 mmHg 96%
    20:00 +2°C° 0.7 mm 1 m/s 744 mmHg 97%
    21:00 +2°C° 0.4 mm 1 m/s 744 mmHg 97%
    22:00 +2°C° 0.4 mm 1 m/s 744 mmHg 97%
    23:00 +2°C° 0.4 mm 1 m/s 745 mmHg 97%
    Mostrar mais